Location: Zagreb
(45.8000°N, 16.0000°E)
Time: 02:32:00
(UTC+02:00)

Vanguard 2 Rocket - All Passes

Search period start: 08 August 2022 00:00
Search period end: 18 August 2022 00:00
Orbit: 553 x 3323 km, 32.9° (Epoch: 07 August)

Date Brightness Start Highest point End Pass type
(mag) Time Alt. Az. Time Alt. Az. Time Alt. Az.
08 Aug - 13:40:54 10° S 13:54:05 24° SE 14:07:38 10° E daylight
08 Aug - 15:51:27 10° SW 16:09:29 44° SSE 16:25:27 10° E daylight
08 Aug - 18:06:55 10° WSW 18:25:57 53° S 18:39:46 10° ESE daylight
08 Aug - 20:25:04 10° W 20:41:13 41° SSW 20:51:48 10° SE visible
08 Aug - 22:46:00 10° W 22:53:48 17° SW 22:59:48 10° SSW visible
09 Aug - 12:43:30 10° SSE 12:52:59 16° SE 13:03:06 10° ESE daylight
09 Aug - 14:50:51 10° SSW 15:07:33 38° SSE 15:23:53 10° E daylight
09 Aug - 17:04:47 10° WSW 17:23:56 52° S 17:39:20 10° ESE daylight
09 Aug - 19:22:01 10° W 19:40:03 48° SSW 19:52:23 10° SE daylight
09 Aug - 21:41:33 10° W 21:53:50 26° SW 22:02:25 10° SSE visible
10 Aug - 13:51:06 10° SSW 14:05:53 31° SE 14:21:35 10° E daylight
10 Aug - 16:03:15 10° SW 16:21:46 50° SSE 16:38:25 10° E daylight
10 Aug - 18:19:20 10° WSW 18:38:25 52° S 18:52:29 10° ESE daylight
10 Aug - 20:37:54 10° W 20:53:21 35° SSW 21:03:56 10° SSE visible
10 Aug - 23:02:06 10° WSW 23:05:27 11° SW 23:08:28 10° SW visible
11 Aug - 12:52:23 10° S 13:04:36 23° SE 13:18:16 10° E daylight
11 Aug - 15:02:21 10° SW 15:19:39 45° SSE 15:36:58 10° E daylight
11 Aug - 17:17:05 10° WSW 17:36:23 54° S 17:52:07 10° ESE daylight
11 Aug - 19:34:41 10° W 19:52:20 44° SSW 20:04:46 10° SE daylight
11 Aug - 21:55:18 10° W 22:05:36 20° SW 22:13:24 10° S visible
12 Aug - 11:55:25 10° SSE 12:03:47 16° SE 12:13:07 10° E daylight
12 Aug - 14:02:10 10° SSW 14:17:47 38° SSE 14:34:56 10° E daylight
12 Aug - 16:15:24 10° WSW 16:34:08 53° S 16:51:15 10° ESE daylight
12 Aug - 18:31:54 10° W 18:50:47 50° SSW 19:05:01 10° SE daylight
12 Aug - 20:51:00 10° W 21:05:16 29° SW 21:15:36 10° SSE visible
13 Aug - 13:02:48 10° SSW 13:16:18 31° SE 13:32:09 10° E daylight
13 Aug - 15:14:18 10° SW 15:31:52 50° SSE 15:49:52 10° E daylight
13 Aug - 17:29:36 10° WSW 17:48:47 54° S 18:04:45 10° ESE daylight
13 Aug - 19:47:31 10° W 20:04:25 38° SSW 20:16:48 10° SSE daylight
13 Aug - 22:10:27 10° WSW 22:17:11 14° SW 22:22:53 10° SSW visible
14 Aug - 12:04:27 10° S 12:15:18 22° SE 12:28:19 10° E daylight
14 Aug - 14:13:50 10° SW 14:29:49 45° SSE 14:47:57 10° E daylight
14 Aug - 16:27:48 10° WSW 16:46:31 55° S 17:03:57 10° ESE daylight
14 Aug - 18:44:37 10° W 19:03:01 45° SSW 19:17:18 10° SE daylight
14 Aug - 21:04:39 10° W 21:16:59 22° SW 21:26:33 10° S visible
15 Aug - 11:08:04 10° SSE 11:14:48 14° SE 11:22:31 10° ESE daylight
15 Aug - 13:14:03 10° SSW 13:28:08 38° SSE 13:45:25 10° E daylight
15 Aug - 15:26:34 10° WSW 15:44:11 54° S 16:02:38 10° ESE daylight
15 Aug - 17:42:14 10° W 18:01:07 51° SSW 18:17:11 10° SE daylight
15 Aug - 20:00:38 10° W 20:16:17 31° SW 20:28:22 10° SSE daylight
16 Aug - 12:15:02 10° SSW 12:26:57 29° SE 12:42:10 10° E daylight
16 Aug - 14:25:55 10° SW 14:42:00 50° SSE 15:00:46 10° E daylight
16 Aug - 16:40:23 10° WSW 16:58:55 54° S 17:16:30 10° ESE daylight
16 Aug - 18:57:30 10° W 19:15:04 39° SSW 19:29:14 10° SSE daylight
16 Aug - 21:19:28 10° W 21:28:32 16° SW 21:36:12 10° SSW visible
17 Aug - 11:17:05 10° S 11:26:18 21° SE 11:37:56 10° E daylight
17 Aug - 13:25:51 10° SW 13:40:09 44° SSE 13:58:21 10° E daylight
17 Aug - 15:39:04 10° WSW 15:56:33 55° S 16:15:15 10° ESE daylight
17 Aug - 17:55:01 10° W 18:13:20 46° SSW 18:29:21 10° SE daylight
17 Aug - 20:14:16 10° W 20:27:59 24° SW 20:39:13 10° S visible
